Flag for U.S.A. Weather past 2 weeks in Fayetteville, North Carolina, U.S.A.

Now
46 °F

Clear.


Feels Like: 41 °F
Forecast: 32 / 49 °F
Wind: 12 mph from Southwest

Location: Fayetteville Regional Airport

Current Time: Jan 30, 2015 at 3:19:13 AM

Latest Report: Jan 30, 2015 at 2:53 AM


Visibility: 10 mi

Pressure: 29.96 "Hg

Humidity: 73%

Dew point: 38 °F

Location of FayettevilleLocation

Historic Weather in Fayetteville — Graph

°F

Fayetteville temperature yesterday

Maximum temperature yesterday: 51 °F (at 3:53 PM)
Minimum temperature yesterday: 22 °F (at 5:53 AM)
Average temperature yesterday: 38 °F

Past Weeks' High & Low Weather Summary

 TemperatureHumidityPressure
High66 °F (Jan 20, 2:53 PM)100% (Jan 15, 9:53 AM)30.37 "Hg (Jan 15, 9:53 AM)
Low22 °F (Jan 29, 5:53 AM)21% (Jan 19, 2:53 PM)29.52 "Hg (Jan 24, 6:53 AM)
Average44 °F67%30.01 "Hg
* Reported Jan 15 1:00 AM — Jan 30 1:53 AM, Fayetteville, Weather by CustomWeather, © 2014

Note: Actual official high and low records may vary slightly from our data, if they occured in-between our weather recording intervals... More about our weather records

Advertising

Fayetteville weather history for previous 24 hours

 ConditionsComfort  
Time TempWeatherWind HumidityBarometerVisibility
1:53 AM
Jan 30
46 °FClear.13 mph71%29.99 "Hg10 mi
12:53 AM46 °FClear.12 mph68%30.02 "Hg10 mi
11:53 PM
Jan 29
46 °FClear.10 mph66%30.06 "Hg10 mi
10:53 PM43 °FPassing clouds.5 mph65%30.08 "Hg10 mi
9:53 PM44 °FPassing clouds.5 mph60%30.09 "Hg10 mi
8:53 PM45 °FPassing clouds.7 mph53%30.10 "Hg10 mi
7:53 PM45 °FPassing clouds.8 mph49%30.10 "Hg10 mi
6:53 PM45 °FPassing clouds.6 mph45%30.11 "Hg10 mi
5:53 PM47 °FPassing clouds.7 mph46%30.12 "Hg10 mi
4:53 PM50 °FSunny.10 mph28%30.15 "Hg10 mi
3:53 PM51 °FSunny.12 mph26%30.19 "Hg10 mi
2:53 PM50 °FSunny.8 mph26%30.20 "Hg10 mi
1:53 PM48 °FSunny.10 mph27%30.23 "Hg10 mi
12:53 PM48 °FSunny.10 mph25%30.26 "Hg10 mi
11:53 AM45 °FSunny.5 mph28%30.31 "Hg10 mi
10:53 AM40 °FSunny.No wind36%30.33 "Hg10 mi
9:53 AM36 °FSunny.7 mph42%30.35 "Hg10 mi
8:53 AM31 °FSunny.3 mph69%30.36 "Hg10 mi
7:53 AM25 °FSunny.No wind85%30.36 "Hg10 mi
6:53 AM24 °FClear.No wind84%30.35 "Hg10 mi
5:53 AM22 °FClear.6 mph89%30.33 "Hg10 mi
4:53 AM24 °FClear.3 mph81%30.31 "Hg10 mi
3:53 AM25 °FClear.No wind78%30.32 "Hg10 mi
Weather by CustomWeather, © 2014

See weather overviewHow to use our weather pages